When you browse on this site, cookies collect data to enhance your experience and personalize the content and advertising you see.
Visit our Privacy Policy to learn more. By continuing to use the site, you agree to this use of cookies and data.
  • In France
  • List of Countries
  • For 7 days
  • Water Temperature
  • Weather Map
  • Weather Widgets
  • user-avatar
    Login

    Hourly Weather Río Gallegos

    Today, 20 February, Thursday

    Time Temperature Precipitation Wind Pressure Humidity
    00:00 +6°C° 0 mm 11 mps 765 mmHg 61%
    01:00 +5°C° 0 mm 10 mps 765 mmHg 62%
    02:00 +5°C° 0 mm 9 mps 766 mmHg 64%
    03:00 +5°C° 0 mm 8 mps 766 mmHg 67%
    04:00 +4°C° 0 mm 7 mps 767 mmHg 69%
    05:00 +5°C° 0 mm 7 mps 767 mmHg 66%
    06:00 +6°C° 0 mm 7 mps 767 mmHg 64%
    07:00 +6°C° 0 mm 7 mps 768 mmHg 62%
    08:00 +9°C° 0 mm 6 mps 768 mmHg 56%
    09:00 +10°C° 0 mm 5 mps 768 mmHg 50%
    10:00 +13°C° 0 mm 5 mps 768 mmHg 44%
    11:00 +14°C° 0 mm 4 mps 768 mmHg 41%
    12:00 +16°C° 0 mm 3 mps 768 mmHg 39%
    13:00 +17°C° 0 mm 3 mps 768 mmHg 36%
    14:00 +17°C° 0 mm 3 mps 768 mmHg 35%
    15:00 +18°C° 0 mm 3 mps 767 mmHg 35%
    16:00 +18°C° 0 mm 4 mps 767 mmHg 35%
    17:00 +17°C° 0 mm 3 mps 767 mmHg 39%
    18:00 +16°C° 0 mm 3 mps 767 mmHg 44%
    19:00 +16°C° 0 mm 3 mps 767 mmHg 49%
    20:00 +14°C° 0 mm 3 mps 767 mmHg 50%
    21:00 +14°C° 0 mm 4 mps 767 mmHg 52%
    22:00 +14°C° 0 mm 4 mps 767 mmHg 53%
    23:00 +14°C° 0 mm 4 mps 767 mmHg 56%

    Tomorrow, 21 February, Friday

    Time Temperature Precipitation Wind Pressure Humidity
    00:00 +13°C° 0 mm 4 mps 767 mmHg 58%
    01:00 +13°C° 0 mm 4 mps 767 mmHg 61%
    08:00 +15°C° 0 mm 4 mps 766 mmHg 62%
    09:00 +18°C° 0 mm 3 mps 766 mmHg 56%
    10:00 +20°C° 0 mm 3 mps 766 mmHg 51%
    11:00 +21°C° 0 mm 3 mps 765 mmHg 47%
    12:00 +23°C° 0 mm 4 mps 765 mmHg 43%
    13:00 +25°C° 0 mm 4 mps 764 mmHg 39%
    14:00 +26°C° 0 mm 4 mps 764 mmHg 39%
    15:00 +26°C° 0 mm 4 mps 763 mmHg 39%
    16:00 +26°C° 0 mm 4 mps 763 mmHg 38%
    17:00 +25°C° 0 mm 3 mps 763 mmHg 43%
    18:00 +24°C° 0 mm 3 mps 762 mmHg 48%
    19:00 +23°C° 0 mm 2 mps 762 mmHg 53%
    20:00 +21°C° 0 mm 2 mps 762 mmHg 53%
    21:00 +20°C° 0 mm 2 mps 762 mmHg 54%
    22:00 +19°C° 0 mm 2 mps 762 mmHg 54%
    23:00 +19°C° 0 mm 2 mps 761 mmHg 53%

    Day after tomorrow, 22 February, Saturday

    Time Temperature Precipitation Wind Pressure Humidity
    00:00 +18°C° 0 mm 2 mps 760 mmHg 53%
    01:00 +18°C° 0 mm 2 mps 760 mmHg 52%
    02:00 +18°C° 0 mm 2 mps 759 mmHg 52%
    03:00 +17°C° 0 mm 3 mps 759 mmHg 52%
    04:00 +16°C° 0 mm 3 mps 758 mmHg 53%
    05:00 +17°C° 0 mm 3 mps 757 mmHg 52%
    06:00 +17°C° 0 mm 3 mps 757 mmHg 52%
    07:00 +18°C° 0 mm 2 mps 756 mmHg 52%
    08:00 +19°C° 0 mm 2 mps 755 mmHg 47%
    09:00 +21°C° 0 mm 1 mps 755 mmHg 42%
    10:00 +23°C° 0 mm 1 mps 754 mmHg 38%
    11:00 +24°C° 0 mm 1 mps 753 mmHg 35%
    12:00 +25°C° 0 mm 2 mps 752 mmHg 33%
    13:00 +26°C° 0 mm 2 mps 751 mmHg 30%
    14:00 +26°C° 0 mm 4 mps 750 mmHg 31%
    15:00 +27°C° 0 mm 6 mps 750 mmHg 32%
    16:00 +27°C° 0 mm 8 mps 749 mmHg 32%
    17:00 +24°C° 0 mm 8 mps 750 mmHg 35%
    18:00 +23°C° 0 mm 8 mps 750 mmHg 38%
    19:00 +21°C° 0 mm 9 mps 750 mmHg 41%
    20:00 +18°C° 0 mm 11 mps 750 mmHg 45%
    21:00 +17°C° 0 mm 13 mps 750 mmHg 49%
    22:00 +14°C° 0 mm 16 mps 751 mmHg 54%
    23:00 +13°C° 0 mm 16 mps 751 mmHg 54%

    23 February, Sunday

    Time Temperature Precipitation Wind Pressure Humidity
    00:00 +11°C° 0 mm 16 mps 751 mmHg 54%
    01:00 +10°C° 0 mm 16 mps 751 mmHg 55%
    02:00 +9°C° 0 mm 14 mps 751 mmHg 55%
    03:00 +9°C° 0 mm 13 mps 751 mmHg 56%
    04:00 +9°C° 0 mm 12 mps 751 mmHg 56%
    05:00 +9°C° 0 mm 12 mps 751 mmHg 55%
    06:00 +10°C° 0 mm 12 mps 751 mmHg 53%
    07:00 +11°C° 0 mm 11 mps 751 mmHg 52%
    08:00 +12°C° 0 mm 11 mps 750 mmHg 49%
    09:00 +13°C° 0 mm 11 mps 750 mmHg 46%
    10:00 +16°C° 0 mm 11 mps 749 mmHg 42%
    11:00 +17°C° 0 mm 11 mps 749 mmHg 40%
    12:00 +18°C° 0 mm 10 mps 748 mmHg 38%
    13:00 +19°C° 0 mm 10 mps 747 mmHg 35%
    14:00 +18°C° 0.1 mm 10 mps 746 mmHg 38%
    15:00 +17°C° 0.1 mm 9 mps 746 mmHg 41%
    16:00 +16°C° 0.1 mm 9 mps 745 mmHg 43%
    17:00 +15°C° 0 mm 9 mps 745 mmHg 44%
    18:00 +14°C° 0 mm 10 mps 745 mmHg 45%
    19:00 +13°C° 0 mm 10 mps 744 mmHg 46%
    20:00 +12°C° 0.3 mm 11 mps 744 mmHg 53%
    21:00 +9°C° 0.3 mm 12 mps 744 mmHg 60%
    22:00 +8°C° 0.3 mm 13 mps 744 mmHg 67%
    23:00 +6°C° 0.1 mm 14 mps 744 mmHg 65%

    24 February, Monday

    Time Temperature Precipitation Wind Pressure Humidity
    00:00 +6°C° 0.1 mm 14 mps 743 mmHg 63%
    01:00 +5°C° 0.1 mm 15 mps 743 mmHg 60%
    02:00 +4°C° 0 mm 14 mps 743 mmHg 62%
    03:00 +4°C° 0 mm 12 mps 743 mmHg 64%
    04:00 +4°C° 0 mm 11 mps 743 mmHg 66%
    05:00 +4°C° 0 mm 12 mps 743 mmHg 64%
    06:00 +4°C° 0 mm 13 mps 743 mmHg 62%
    07:00 +5°C° 0 mm 13 mps 743 mmHg 60%
    08:00 +5°C° 0 mm 13 mps 743 mmHg 59%
    09:00 +6°C° 0 mm 14 mps 743 mmHg 58%
    10:00 +6°C° 0 mm 14 mps 743 mmHg 57%
    11:00 +8°C° 0.1 mm 15 mps 743 mmHg 54%
    12:00 +9°C° 0.1 mm 16 mps 743 mmHg 50%
    13:00 +9°C° 0.1 mm 16 mps 743 mmHg 47%
    14:00 +9°C° 0 mm 17 mps 743 mmHg 48%
    15:00 +9°C° 0 mm 17 mps 743 mmHg 49%
    16:00 +7°C° 0 mm 18 mps 744 mmHg 50%
    17:00 +6°C° 0 mm 17 mps 744 mmHg 53%
    18:00 +5°C° 0 mm 17 mps 744 mmHg 56%
    19:00 +5°C° 0 mm 17 mps 745 mmHg 59%
    20:00 +3°C° 0 mm 17 mps 745 mmHg 60%
    21:00 +4°C° 0 mm 16 mps 746 mmHg 61%
    22:00 +4°C° 0 mm 16 mps 746 mmHg 62%
    23:00 +2°C° 0 mm 16 mps 746 mmHg 63%

    25 February, Tuesday

    Time Temperature Precipitation Wind Pressure Humidity
    00:00 +2°C° 0 mm 17 mps 747 mmHg 63%
    01:00 +2°C° 0 mm 17 mps 747 mmHg 64%
    02:00 +2°C° 0 mm 17 mps 748 mmHg 63%
    03:00 +2°C° 0 mm 17 mps 748 mmHg 63%
    04:00 +2°C° 0 mm 17 mps 749 mmHg 62%
    05:00 +2°C° 0 mm 17 mps 750 mmHg 60%
    06:00 +3°C° 0 mm 18 mps 750 mmHg 59%
    07:00 +3°C° 0 mm 18 mps 751 mmHg 57%
    08:00 +5°C° 0 mm 18 mps 751 mmHg 53%
    09:00 +6°C° 0 mm 17 mps 752 mmHg 50%
    10:00 +7°C° 0 mm 17 mps 752 mmHg 47%
    11:00 +9°C° 0 mm 17 mps 753 mmHg 44%
    12:00 +10°C° 0 mm 16 mps 753 mmHg 42%
    13:00 +11°C° 0 mm 16 mps 753 mmHg 40%
    14:00 +11°C° 0 mm 16 mps 754 mmHg 42%
    15:00 +11°C° 0 mm 15 mps 754 mmHg 43%
    16:00 +11°C° 0 mm 15 mps 755 mmHg 45%
    17:00 +10°C° 0 mm 14 mps 756 mmHg 50%
    18:00 +9°C° 0 mm 12 mps 756 mmHg 54%
    19:00 +9°C° 0 mm 11 mps 757 mmHg 59%
    20:00 +9°C° 0 mm 10 mps 757 mmHg 61%
    21:00 +9°C° 0 mm 8 mps 757 mmHg 64%
    22:00 +9°C° 0 mm 7 mps 757 mmHg 67%
    23:00 +10°C° 0.3 mm 8 mps 756 mmHg 68%
    Show more